RYR8UR GMAD-LEMD

Flight info

Callsign RYR8UR
Flight time 1h 31m
Altitude 34000
Route MOGBA UH300 ESS UN871 ADUBI DCT VJF N10 HIJ M30 PARKA Z165 SOTUK
Aircraft B738/M-SDE2E3FGHIRWXY/LB1

Departure

Time 2026-05-04 00:37
Airport Al Massira Airport (GMAD)

Arrival

Time 2026-05-04 02:09
Airport Adolfo Suárez Madrid–Barajas Airport (LEMD)
Time Latitude Longitude Altitude Speed Heading
2026-05-04 00:31 30.32346 -9.39436 262 ft 0 kts 179°
2026-05-04 00:36 30.32319 -9.39439 262 ft 10 kts 192°
2026-05-04 00:36 30.32242 -9.39520 263 ft 20 kts 243°
2026-05-04 00:36 30.32228 -9.39809 256 ft 72 kts 271°
2026-05-04 00:37 30.32250 -9.40728 240 ft 152 kts 271°
2026-05-04 00:37 30.32271 -9.42148 608 ft 189 kts 270°
2026-05-04 00:37 30.32259 -9.43685 1696 ft 190 kts 268°
2026-05-04 00:37 30.32276 -9.45250 2574 ft 206 kts 272°
2026-05-04 00:38 30.32431 -9.46978 2840 ft 231 kts 288°
2026-05-04 00:38 30.33384 -9.48513 3326 ft 239 kts 319°
2026-05-04 00:38 30.34642 -9.49781 4003 ft 243 kts 319°
2026-05-04 00:38 30.35960 -9.51105 4442 ft 261 kts 319°
2026-05-04 00:39 30.37362 -9.52508 5261 ft 265 kts 319°
2026-05-04 00:39 30.38744 -9.53883 6235 ft 264 kts 319°
2026-05-04 00:39 30.40281 -9.55062 7035 ft 270 kts 339°
2026-05-04 00:39 30.41490 -9.55446 7560 ft 274 kts 346°
2026-05-04 00:40 30.43382 -9.55906 8292 ft 282 kts 347°
2026-05-04 00:40 30.45389 -9.56387 8605 ft 306 kts 346°
2026-05-04 00:40 30.47541 -9.56923 8817 ft 331 kts 346°
2026-05-04 00:40 30.49881 -9.57528 9087 ft 351 kts 345°
2026-05-04 00:41 30.52276 -9.58166 9693 ft 359 kts 345°
2026-05-04 00:41 30.54766 -9.58845 10016 ft 376 kts 345°
2026-05-04 00:41 30.57378 -9.59568 10405 ft 387 kts 345°
2026-05-04 00:41 30.59992 -9.60296 10963 ft 391 kts 344°
2026-05-04 00:42 30.62634 -9.61037 11600 ft 394 kts 344°
2026-05-04 00:42 30.65326 -9.61794 12205 ft 398 kts 344°
2026-05-04 00:42 30.68046 -9.62559 12800 ft 402 kts 344°
2026-05-04 00:42 30.70757 -9.63325 13387 ft 405 kts 344°
2026-05-04 00:43 30.73520 -9.64105 13944 ft 409 kts 343°
2026-05-04 00:43 30.76284 -9.64886 14445 ft 413 kts 343°
2026-05-04 00:43 30.79092 -9.65680 14993 ft 415 kts 343°
2026-05-04 00:43 30.81913 -9.66477 15503 ft 418 kts 343°
2026-05-04 00:44 30.84737 -9.67276 15990 ft 421 kts 342°
2026-05-04 00:44 30.87618 -9.68092 16524 ft 424 kts 342°
2026-05-04 00:44 30.90466 -9.68899 17028 ft 426 kts 342°
2026-05-04 00:44 30.93376 -9.69723 17519 ft 429 kts 342°
2026-05-04 00:45 30.96260 -9.70541 18002 ft 432 kts 342°
2026-05-04 00:45 30.99216 -9.71374 18449 ft 436 kts 343°
2026-05-04 00:45 31.02209 -9.71889 18833 ft 444 kts 352°
2026-05-04 00:45 31.05331 -9.71825 19262 ft 450 kts 360°
2026-05-04 00:46 31.08468 -9.71529 19692 ft 453 kts
2026-05-04 00:46 31.11632 -9.71207 20083 ft 456 kts
2026-05-04 00:46 31.14767 -9.70896 20463 ft 458 kts
2026-05-04 00:46 31.17972 -9.70598 20858 ft 461 kts 360°
2026-05-04 00:47 31.21187 -9.70314 21237 ft 463 kts 360°
2026-05-04 00:47 31.24382 -9.70041 21605 ft 466 kts 359°
2026-05-04 00:47 31.27659 -9.69764 21991 ft 468 kts 359°
2026-05-04 00:47 31.30881 -9.69490 22359 ft 470 kts 359°
2026-05-04 00:48 31.34162 -9.69210 22709 ft 473 kts 359°
2026-05-04 00:48 31.37460 -9.68791 23022 ft 480 kts
2026-05-04 00:48 31.40682 -9.67793 23355 ft 487 kts 15°
2026-05-04 00:48 31.43836 -9.66202 23657 ft 496 kts 25°
2026-05-04 00:49 31.46832 -9.64118 23936 ft 499 kts 28°
2026-05-04 00:49 31.49758 -9.61966 24203 ft 501 kts 28°
2026-05-04 00:49 31.52716 -9.59761 24464 ft 504 kts 29°
2026-05-04 00:49 31.55658 -9.57573 24723 ft 505 kts 28°
2026-05-04 00:50 31.58645 -9.55371 24988 ft 507 kts 28°
2026-05-04 00:50 31.61649 -9.53175 25247 ft 509 kts 28°
2026-05-04 00:50 31.64681 -9.50973 25494 ft 511 kts 28°
2026-05-04 00:50 31.67715 -9.48777 25741 ft 512 kts 28°
2026-05-04 00:51 31.70722 -9.46603 25973 ft 514 kts 28°
2026-05-04 00:51 31.73784 -9.44388 26208 ft 516 kts 28°
2026-05-04 00:51 31.76833 -9.42180 26432 ft 517 kts 28°
2026-05-04 00:51 31.79920 -9.39942 26645 ft 519 kts 28°
2026-05-04 00:52 31.83014 -9.37695 26846 ft 520 kts 28°
2026-05-04 00:52 31.86072 -9.35472 27014 ft 522 kts 28°
2026-05-04 00:52 31.89187 -9.33206 27162 ft 523 kts 28°
2026-05-04 00:52 31.92268 -9.30962 27308 ft 525 kts 28°
2026-05-04 00:53 31.95381 -9.28693 27441 ft 526 kts 28°
2026-05-04 00:53 31.98469 -9.26441 27560 ft 527 kts 28°
2026-05-04 00:53 32.01613 -9.24146 27671 ft 527 kts 28°
2026-05-04 00:53 32.04717 -9.21878 27811 ft 527 kts 28°
2026-05-04 00:54 32.07853 -9.19584 27966 ft 527 kts 28°
2026-05-04 00:54 32.10942 -9.17324 28127 ft 527 kts 28°
2026-05-04 00:54 32.14070 -9.15032 28290 ft 527 kts 28°
2026-05-04 00:54 32.17190 -9.12746 28454 ft 527 kts 28°
2026-05-04 00:55 32.20266 -9.10489 28620 ft 526 kts 28°
2026-05-04 00:55 32.23394 -9.08193 28789 ft 526 kts 28°
2026-05-04 00:55 32.26492 -9.05917 28977 ft 526 kts 28°
2026-05-04 00:55 32.29621 -9.03617 29151 ft 526 kts 28°
2026-05-04 00:56 32.32704 -9.01349 29323 ft 526 kts 28°
2026-05-04 00:56 32.35811 -8.99060 29503 ft 526 kts 28°
2026-05-04 00:56 32.38933 -8.96759 29702 ft 525 kts 28°
2026-05-04 00:56 32.42047 -8.94462 29897 ft 525 kts 28°
2026-05-04 00:57 32.45105 -8.92203 30304 ft 520 kts 28°
2026-05-04 00:57 32.48184 -8.89925 30686 ft 517 kts 28°
2026-05-04 00:57 32.51201 -8.87693 30982 ft 515 kts 28°
2026-05-04 00:57 32.54266 -8.85426 31219 ft 516 kts 28°
2026-05-04 00:58 32.57322 -8.83164 31428 ft 517 kts 28°
2026-05-04 00:58 32.60331 -8.80935 31661 ft 516 kts 28°
2026-05-04 00:58 32.63397 -8.78661 31934 ft 516 kts 28°
2026-05-04 00:58 32.66436 -8.76404 32202 ft 515 kts 28°
2026-05-04 00:59 32.69477 -8.74144 32450 ft 515 kts 28°
2026-05-04 00:59 32.72479 -8.71911 32689 ft 514 kts 28°
2026-05-04 00:59 32.75524 -8.69645 32932 ft 514 kts 28°
2026-05-04 00:59 32.78564 -8.67381 33179 ft 514 kts 28°
2026-05-04 01:00 32.81571 -8.65138 33431 ft 513 kts 28°
2026-05-04 01:00 32.84584 -8.62891 33668 ft 513 kts 28°
2026-05-04 01:00 32.87611 -8.60630 33886 ft 513 kts 28°
2026-05-04 01:00 32.90647 -8.58361 34083 ft 513 kts 28°
2026-05-04 01:01 32.93682 -8.56092 34081 ft 515 kts 28°
2026-05-04 01:01 32.99744 -8.51551 34095 ft 513 kts 28°
2026-05-04 01:02 33.05771 -8.47029 34091 ft 511 kts 28°
2026-05-04 01:02 33.11780 -8.42514 34094 ft 511 kts 28°
2026-05-04 01:03 33.17791 -8.37990 34095 ft 511 kts 28°
2026-05-04 01:03 33.23800 -8.33467 34094 ft 511 kts 28°
2026-05-04 01:04 33.29814 -8.28944 34097 ft 511 kts 28°
2026-05-04 01:04 33.35795 -8.24437 34094 ft 512 kts 28°
2026-05-04 01:05 33.41855 -8.19862 34087 ft 512 kts 28°
2026-05-04 01:05 33.47863 -8.15317 34092 ft 513 kts 28°
2026-05-04 01:06 33.53914 -8.10733 34335 ft 515 kts 27°
2026-05-04 01:06 33.56948 -8.08430 34559 ft 514 kts 27°
2026-05-04 01:06 33.59942 -8.06156 34746 ft 514 kts 27°
2026-05-04 01:06 33.62983 -8.03844 34890 ft 515 kts 27°
2026-05-04 01:07 33.66018 -8.01536 35037 ft 516 kts 27°
2026-05-04 01:07 33.69034 -7.99240 35201 ft 516 kts 27°
2026-05-04 01:07 33.72079 -7.96920 35381 ft 516 kts 27°
2026-05-04 01:07 33.75082 -7.94630 35542 ft 516 kts 27°
2026-05-04 01:08 33.78140 -7.92295 35705 ft 516 kts 27°
2026-05-04 01:08 33.81163 -7.89987 35866 ft 517 kts 27°
2026-05-04 01:08 33.84207 -7.87659 36021 ft 517 kts 27°
2026-05-04 01:08 33.87216 -7.85357 36171 ft 517 kts 27°
2026-05-04 01:09 33.90263 -7.83024 36325 ft 517 kts 27°
2026-05-04 01:09 33.93306 -7.80691 36477 ft 518 kts 27°
2026-05-04 01:09 33.96326 -7.78374 36627 ft 518 kts 27°
2026-05-04 01:09 33.99382 -7.76028 36776 ft 518 kts 27°
2026-05-04 01:10 34.02426 -7.73688 36928 ft 518 kts 27°
2026-05-04 01:10 34.05441 -7.71369 37066 ft 519 kts 27°
2026-05-04 01:10 34.08510 -7.69007 37217 ft 519 kts 27°
2026-05-04 01:10 34.11552 -7.66663 37374 ft 519 kts 27°
2026-05-04 01:11 34.14574 -7.64332 37515 ft 519 kts 27°
2026-05-04 01:11 34.17621 -7.61981 37645 ft 519 kts 27°
2026-05-04 01:11 34.20664 -7.59630 37783 ft 519 kts 27°
2026-05-04 01:11 34.23687 -7.57293 37920 ft 519 kts 27°
2026-05-04 01:12 34.26731 -7.54937 38053 ft 518 kts 27°
2026-05-04 01:12 34.32842 -7.50203 38085 ft 521 kts 27°
2026-05-04 01:13 34.38932 -7.45477 38089 ft 521 kts 27°
2026-05-04 01:13 34.45021 -7.40741 38089 ft 520 kts 27°
2026-05-04 01:14 34.51128 -7.35984 38085 ft 520 kts 27°
2026-05-04 01:14 34.57195 -7.31250 38082 ft 520 kts 27°
2026-05-04 01:15 34.63303 -7.26475 38083 ft 520 kts 27°
2026-05-04 01:15 34.69364 -7.21729 38088 ft 520 kts 27°
2026-05-04 01:16 34.75454 -7.16951 38081 ft 520 kts 27°
2026-05-04 01:16 34.81505 -7.12196 38086 ft 519 kts 27°
2026-05-04 01:17 34.87582 -7.07413 38081 ft 519 kts 27°
2026-05-04 01:17 34.93662 -7.02617 38076 ft 519 kts 27°
2026-05-04 01:18 34.99712 -6.97837 38076 ft 519 kts 27°
2026-05-04 01:18 35.05772 -6.93041 38075 ft 519 kts 27°
2026-05-04 01:19 35.11857 -6.88215 38075 ft 519 kts 27°
2026-05-04 01:19 35.17908 -6.83408 38072 ft 519 kts 27°
2026-05-04 01:20 35.23926 -6.78619 38076 ft 519 kts 27°
2026-05-04 01:20 35.30004 -6.73772 38070 ft 519 kts 27°
2026-05-04 01:21 35.36043 -6.68959 38067 ft 519 kts 27°
2026-05-04 01:21 35.41133 -6.65020 38063 ft 518 kts 26°
2026-05-04 01:22 35.47257 -6.60340 38065 ft 518 kts 26°
2026-05-04 01:22 35.53362 -6.55648 38065 ft 518 kts 26°
2026-05-04 01:23 35.59483 -6.50914 38062 ft 519 kts 26°
2026-05-04 01:23 35.65574 -6.46191 38063 ft 519 kts 27°
2026-05-04 01:24 35.71681 -6.41448 38057 ft 519 kts 27°
2026-05-04 01:24 35.77778 -6.36705 38056 ft 519 kts 26°
2026-05-04 01:25 35.83899 -6.31933 38057 ft 519 kts 27°
2026-05-04 01:25 35.89902 -6.26911 38056 ft 521 kts 30°
2026-05-04 01:26 35.95816 -6.21762 38060 ft 521 kts 30°
2026-05-04 01:26 36.01747 -6.16641 38062 ft 521 kts 29°
2026-05-04 01:27 36.07470 -6.11734 38055 ft 521 kts 29°
2026-05-04 01:27 36.13420 -6.06629 38055 ft 521 kts 29°
2026-05-04 01:28 36.19377 -6.01506 38052 ft 521 kts 28°
2026-05-04 01:28 36.25751 -5.97620 38065 ft 505 kts 11°
2026-05-04 01:28 36.29122 -5.96506 38047 ft 494 kts
2026-05-04 01:29 36.32479 -5.95896 38070 ft 491 kts 359°
2026-05-04 01:29 36.39291 -5.94787 38058 ft 492 kts 359°
2026-05-04 01:30 36.46069 -5.93651 38056 ft 493 kts 359°
2026-05-04 01:30 36.52855 -5.92457 38052 ft 494 kts 360°
2026-05-04 01:31 36.59653 -5.91238 38053 ft 494 kts 360°
2026-05-04 01:31 36.66484 -5.90011 38054 ft 494 kts 359°
2026-05-04 01:32 36.73240 -5.88799 38059 ft 494 kts 359°
2026-05-04 01:32 36.80070 -5.87572 38044 ft 494 kts 359°
2026-05-04 01:33 36.86882 -5.86347 38041 ft 494 kts 359°
2026-05-04 01:33 36.93678 -5.85122 38052 ft 494 kts 359°
2026-05-04 01:34 37.00501 -5.83890 38046 ft 495 kts 359°
2026-05-04 01:34 37.07297 -5.82661 38037 ft 495 kts 359°
2026-05-04 01:35 37.14124 -5.81405 38032 ft 497 kts
2026-05-04 01:35 37.17503 -5.80343 38019 ft 509 kts 12°
2026-05-04 01:35 37.20816 -5.78732 38048 ft 512 kts 14°
2026-05-04 01:36 37.27411 -5.75269 38027 ft 514 kts 15°
2026-05-04 01:36 37.34016 -5.71792 38027 ft 514 kts 15°
2026-05-04 01:37 37.40620 -5.68387 38026 ft 514 kts 14°
2026-05-04 01:37 37.47242 -5.65003 38034 ft 514 kts 14°
2026-05-04 01:38 37.53869 -5.61615 38030 ft 514 kts 14°
2026-05-04 01:38 37.60500 -5.58215 38033 ft 515 kts 14°
2026-05-04 01:39 37.67140 -5.54800 38034 ft 515 kts 14°
2026-05-04 01:39 37.73787 -5.51374 38037 ft 516 kts 14°
2026-05-04 01:40 37.80439 -5.47939 38038 ft 517 kts 14°
2026-05-04 01:40 37.87089 -5.44498 38024 ft 517 kts 14°
2026-05-04 01:41 37.93738 -5.41051 38033 ft 517 kts 14°
2026-05-04 01:41 38.00388 -5.37598 38033 ft 517 kts 15°
2026-05-04 01:42 38.07050 -5.34130 38042 ft 517 kts 15°
2026-05-04 01:42 38.13688 -5.30670 38031 ft 517 kts 15°
2026-05-04 01:43 38.20357 -5.27185 38027 ft 518 kts 15°
2026-05-04 01:43 38.27009 -5.23701 38026 ft 517 kts 15°
2026-05-04 01:44 38.33669 -5.20209 38034 ft 517 kts 15°
2026-05-04 01:44 38.40326 -5.16710 38034 ft 517 kts 15°
2026-05-04 01:45 38.46934 -5.13230 38032 ft 517 kts 15°
2026-05-04 01:45 38.56928 -5.07953 38027 ft 517 kts 15°
2026-05-04 01:46 38.63586 -5.04429 38030 ft 518 kts 15°
2026-05-04 01:46 38.70227 -5.00906 38004 ft 512 kts 15°
2026-05-04 01:47 38.73473 -4.99172 37986 ft 496 kts 15°
2026-05-04 01:47 38.76605 -4.97494 38000 ft 480 kts 15°
2026-05-04 01:47 38.82668 -4.94264 38025 ft 470 kts 15°
2026-05-04 01:48 38.88713 -4.91057 38026 ft 470 kts 15°
2026-05-04 01:48 38.91690 -4.89470 37920 ft 464 kts 15°
2026-05-04 01:48 38.94674 -4.87873 37441 ft 462 kts 15°
2026-05-04 01:49 38.97660 -4.86279 36758 ft 467 kts 15°
2026-05-04 01:49 39.00658 -4.84679 36043 ft 473 kts 15°
2026-05-04 01:49 39.03731 -4.83035 35389 ft 477 kts 15°
2026-05-04 01:49 39.06786 -4.81395 34800 ft 480 kts 15°
2026-05-04 01:50 39.09875 -4.79733 34280 ft 481 kts 15°
2026-05-04 01:50 39.12976 -4.78062 33748 ft 482 kts 15°
2026-05-04 01:50 39.16085 -4.76388 33137 ft 483 kts 15°
2026-05-04 01:50 39.19119 -4.74593 32493 ft 491 kts 25°
2026-05-04 01:51 39.21855 -4.71799 31823 ft 502 kts 42°
2026-05-04 01:51 39.24286 -4.68612 31298 ft 502 kts 43°
2026-05-04 01:51 39.26716 -4.65351 30687 ft 503 kts 44°
2026-05-04 01:51 39.29134 -4.62110 30088 ft 504 kts 43°
2026-05-04 01:52 39.31576 -4.58874 29417 ft 504 kts 43°
2026-05-04 01:52 39.34039 -4.55646 28745 ft 496 kts 43°
2026-05-04 01:52 39.36473 -4.52478 28092 ft 495 kts 43°
2026-05-04 01:52 39.38876 -4.49359 27677 ft 489 kts 43°
2026-05-04 01:53 39.41244 -4.46284 27296 ft 482 kts 43°
2026-05-04 01:53 39.43609 -4.43207 26860 ft 477 kts 43°
2026-05-04 01:53 39.45923 -4.40191 26407 ft 473 kts 43°
2026-05-04 01:53 39.48258 -4.37146 25458 ft 480 kts 44°
2026-05-04 01:54 39.50658 -4.34015 24233 ft 494 kts 44°
2026-05-04 01:54 39.53075 -4.30855 23121 ft 502 kts 44°
2026-05-04 01:54 39.55542 -4.27625 22152 ft 502 kts 44°
2026-05-04 01:54 39.58001 -4.24398 21424 ft 496 kts 44°
2026-05-04 01:55 39.60384 -4.21269 20791 ft 489 kts 44°
2026-05-04 01:55 39.62759 -4.18146 20114 ft 477 kts 44°
2026-05-04 01:55 39.65058 -4.15121 19096 ft 468 kts 44°
2026-05-04 01:55 39.67341 -4.12114 17960 ft 464 kts 44°
2026-05-04 01:56 39.69601 -4.09138 16854 ft 460 kts 44°
2026-05-04 01:56 39.71813 -4.06221 16241 ft 454 kts 44°
2026-05-04 01:56 39.74015 -4.03314 15748 ft 445 kts 44°
2026-05-04 01:56 39.76181 -4.00452 15159 ft 438 kts 44°
2026-05-04 01:57 39.78295 -3.97654 14543 ft 433 kts 45°
2026-05-04 01:57 39.80398 -3.94870 13929 ft 429 kts 45°
2026-05-04 01:57 39.82455 -3.92145 13117 ft 415 kts 45°
2026-05-04 01:57 39.84445 -3.89506 12078 ft 410 kts 45°
2026-05-04 01:58 39.86456 -3.86835 11422 ft 408 kts 45°
2026-05-04 01:58 39.88414 -3.84235 11269 ft 392 kts 45°
2026-05-04 01:58 39.90280 -3.81754 10816 ft 386 kts 45°
2026-05-04 01:58 39.92157 -3.79256 10241 ft 384 kts 45°
2026-05-04 01:59 39.94027 -3.76766 9739 ft 381 kts 46°
2026-05-04 01:59 39.95842 -3.74347 9486 ft 369 kts 46°
2026-05-04 01:59 39.97625 -3.71966 9199 ft 360 kts 45°
2026-05-04 01:59 39.99332 -3.69686 8932 ft 351 kts 45°
2026-05-04 02:00 40.01034 -3.67412 8667 ft 343 kts 45°
2026-05-04 02:00 40.02663 -3.65232 8404 ft 335 kts 45°
2026-05-04 02:00 40.04287 -3.63060 8142 ft 329 kts 45°
2026-05-04 02:00 40.05857 -3.60957 7890 ft 323 kts 45°
2026-05-04 02:01 40.07411 -3.58874 7675 ft 316 kts 45°
2026-05-04 02:01 40.08938 -3.56825 7376 ft 313 kts 45°
2026-05-04 02:01 40.10434 -3.54817 7084 ft 310 kts 45°
2026-05-04 02:01 40.11939 -3.52797 6782 ft 308 kts 45°
2026-05-04 02:02 40.13432 -3.50791 6484 ft 306 kts 45°
2026-05-04 02:02 40.14918 -3.48792 6201 ft 304 kts 45°
2026-05-04 02:02 40.15887 -3.47489 6123 ft 298 kts 45°
2026-05-04 02:02 40.17826 -3.44959 5722 ft 296 kts 41°
2026-05-04 02:03 40.18844 -3.43753 5488 ft 298 kts 40°
2026-05-04 02:03 40.20403 -3.41940 5099 ft 297 kts 40°
2026-05-04 02:03 40.22043 -3.40390 4686 ft 290 kts 28°
2026-05-04 02:03 40.23795 -3.39121 4291 ft 284 kts 25°
2026-05-04 02:04 40.25634 -3.38400 4008 ft 266 kts 359°
2026-05-04 02:04 40.27397 -3.38471 4002 ft 250 kts 350°
2026-05-04 02:04 40.29077 -3.38778 4005 ft 238 kts 346°
2026-05-04 02:04 40.30550 -3.39539 4008 ft 221 kts 324°
2026-05-04 02:05 40.31832 -3.40640 4021 ft 221 kts 321°
2026-05-04 02:05 40.33054 -3.41834 4039 ft 212 kts 318°
2026-05-04 02:05 40.34187 -3.42994 4002 ft 200 kts 318°
2026-05-04 02:05 40.35282 -3.44086 4008 ft 200 kts 319°
2026-05-04 02:06 40.36355 -3.45220 3997 ft 198 kts 316°
2026-05-04 02:06 40.37441 -3.46338 3974 ft 198 kts 319°
2026-05-04 02:06 40.38536 -3.47442 3903 ft 199 kts 318°
2026-05-04 02:06 40.39617 -3.48545 3664 ft 196 kts 318°
2026-05-04 02:07 40.40678 -3.49628 3416 ft 187 kts 318°
2026-05-04 02:07 40.41667 -3.50637 3163 ft 176 kts 319°
2026-05-04 02:07 40.42598 -3.51589 2921 ft 162 kts 320°
2026-05-04 02:07 40.43471 -3.52480 2681 ft 155 kts 320°
2026-05-04 02:08 40.44328 -3.53355 2499 ft 158 kts 321°
2026-05-04 02:08 40.45201 -3.54245 2283 ft 161 kts 321°
2026-05-04 02:08 40.46081 -3.55144 2076 ft 159 kts 321°
2026-05-04 02:08 40.46931 -3.56020 1971 ft 145 kts 323°
2026-05-04 02:09 40.47439 -3.56542 1992 ft 35 kts 318°
2026-05-04 02:09 40.47552 -3.56781 1993 ft 20 kts 290°
2026-05-04 02:09 40.47494 -3.56859 1991 ft 16 kts 140°
2026-05-04 02:09 40.47388 -3.56749 1987 ft 23 kts 142°
2026-05-04 02:10 40.47247 -3.56606 1982 ft 27 kts 143°
2026-05-04 02:10 40.47089 -3.56477 1979 ft 26 kts 160°
2026-05-04 02:10 40.46937 -3.56453 1977 ft 15 kts 181°
2026-05-04 02:10 40.46883 -3.56532 1974 ft 13 kts 269°
2026-05-04 02:11 40.46880 -3.56651 1974 ft 13 kts 240°
2026-05-04 02:11 40.46799 -3.56691 1976 ft 13 kts 186°
2026-05-04 02:11 40.46714 -3.56701 1973 ft 12 kts 184°
2026-05-04 02:11 40.46630 -3.56707 1972 ft 12 kts 183°
2026-05-04 02:12 40.46550 -3.56713 1973 ft 11 kts 184°
2026-05-04 02:12 40.46501 -3.56730 1975 ft 4 kts 242°
2026-05-04 02:12 40.46498 -3.56770 1971 ft 4 kts 270°
2026-05-04 02:12 40.46499 -3.56805 1971 ft 3 kts 271°
2026-05-04 02:13 40.46499 -3.56815 1971 ft 0 kts 271°